McConnell AFB, KS

11:44 AM CST on December 09, 2019 (GMT -0600)
McConnell Air Force Base

Weather History for KIAB - June, 2019

Change the Weather History Date:

Thursday, June 6, 2019

  Actual Average Record
Temperature  
Mean Temperature 70 °F -  
Max Temperature 74 °F 79 °F 101 °F (2011)
Min Temperature 66 °F 60 °F 48 °F (1998)
Cooling Degree Days 6    
Growing Degree Days 20 (Base 50)    
Moisture  
Dew Point 66 °F    
Average Humidity 87    
Maximum Humidity 100    
Minimum Humidity 72    
Precipitation  
Precipitation 0.06 in - - ()
Sea Level Pressure  
Sea Level Pressure 29.81 in    
Wind  
Wind Speed 7 mph (NNE)    
Max Wind Speed 16 mph    
Max Gust Speed 23 mph    
Visibility 10 miles    
Events Rain , Thunderstorm    
Averages and records for this station are not official NWS values.
T = Trace of Precipitation, MM = Missing Value Source: NWS Daily Summary

Daily Weather History Graph

Daily Weather History Graph

Search for Another Location

Airport or City:

Astronomy

Jun. 06, 2019 Rise Set
Actual Time 6:07 AM CDT 8:47 PM CDT
Civil Twilight 5:37 AM CDT 9:18 PM CDT
Nautical Twilight 4:58 AM CDT 9:57 PM CDT
Astronomical Twilight 4:15 AM CDT 10:40 PM CDT
Moon 9:17 AM CDT (6/6) No Moon Set
Length of Visible Light 15h 41m
Length of Day
14h 40m
Waxing Crescent, 14% of the Moon is Illuminated
Jun 6
Waxing Crescent
Jun 10
First Quarter
Jun 17
Full
Jun 25
Last Quarter
Jul 2
New

Hourly Weather History & Observations

Time (CDT) Temp. Dew Point Humidity Pressure Visibility Wind Dir Wind Speed Gust Speed Precip Events Conditions
12:56 AM 68.2 °F 63.1 °F 84% 29.85 in 10.0 mi NNE 6.9 mph - N/A   Overcast
1:56 AM 67.8 °F 62.1 °F 82% 29.83 in 10.0 mi NE 12.7 mph - N/A   Overcast
2:56 AM 66.4 °F 63.0 °F 89% 29.73 in 10.0 mi SE 6.9 mph - N/A   Mostly Cloudy
5:35 AM 68.0 °F 64.4 °F 88% 29.82 in 10.0 mi North 16.1 mph 23.0 mph N/A   Overcast
5:46 AM 68.0 °F 62.6 °F 83% 29.81 in 10.0 mi North 11.5 mph - N/A   Overcast
5:56 AM 68.0 °F 62.2 °F 82% 29.81 in 10.0 mi NNE 12.7 mph - N/A   Overcast
9:56 AM 68.7 °F 64.0 °F 85% 29.81 in 10.0 mi East 3.5 mph - N/A   Overcast
10:07 AM 68.0 °F 64.4 °F 88% 29.81 in 10.0 mi East 5.8 mph - N/A   Light Drizzle
10:09 AM 68.0 °F 64.4 °F 88% 29.81 in 10.0 mi East 4.6 mph - N/A   Light Drizzle
10:19 AM 68.0 °F 66.2 °F 94% 29.80 in 9.0 mi East 4.6 mph - N/A Rain Light Rain
10:25 AM 68.0 °F 66.2 °F 94% 29.80 in 8.0 mi East 4.6 mph - N/A Rain Light Rain
10:54 AM 68.0 °F 68.0 °F 100% 29.81 in 10.0 mi Calm Calm - N/A Rain Light Rain
10:56 AM 68.2 °F 67.3 °F 97% 29.81 in 10.0 mi Calm Calm - 0.03 in Rain Light Rain
11:10 AM 68.0 °F 66.2 °F 94% 29.80 in 10.0 mi Calm Calm - N/A Rain Light Rain
11:20 AM 68.0 °F 66.2 °F 94% 29.80 in 10.0 mi Calm Calm - N/A Rain Light Rain
11:21 AM 68.0 °F 66.2 °F 94% 29.80 in 10.0 mi Calm Calm - N/A Rain Light Rain
11:33 AM 68.0 °F 66.2 °F 94% 29.79 in 10.0 mi Calm Calm - N/A Rain Light Rain
11:47 AM 68.0 °F 66.2 °F 94% 29.80 in 10.0 mi ENE 3.5 mph - N/A Rain Light Rain
11:53 AM 68.0 °F 66.2 °F 94% 29.80 in 10.0 mi NE 4.6 mph - N/A Rain Light Rain
11:56 AM 68.5 °F 65.8 °F 91% 29.80 in 10.0 mi NNE 5.8 mph - 0.03 in Rain Light Rain
11:58 AM 68.0 °F 66.2 °F 94% 29.80 in 10.0 mi NNE 4.6 mph - N/A Rain Light Rain
11:59 AM 68.0 °F 66.2 °F 94% 29.80 in 10.0 mi NNE 5.8 mph - N/A Rain Light Rain
12:13 PM 69.8 °F 68.0 °F 94% 29.80 in 10.0 mi North 5.8 mph - N/A Rain Light Rain
12:34 PM 69.8 °F 68.0 °F 94% 29.81 in 10.0 mi NNE 6.9 mph - N/A   Light Drizzle
12:56 PM 70.3 °F 68.2 °F 93% 29.83 in 10.0 mi North 5.8 mph - 0.00 in Rain Light Rain
12:57 PM 69.8 °F 68.0 °F 94% 29.82 in 10.0 mi NNE 5.8 mph - N/A Rain Light Rain
1:30 PM 71.6 °F 68.0 °F 88% 29.83 in 10.0 mi North 4.6 mph - N/A   Light Drizzle
1:32 PM 71.6 °F 68.0 °F 88% 29.83 in 10.0 mi North 3.5 mph - N/A   Light Drizzle
1:35 PM 71.6 °F 68.0 °F 88% 29.83 in 10.0 mi North 5.8 mph - N/A   Overcast
1:37 PM 71.6 °F 68.0 °F 88% 29.83 in 10.0 mi NE 6.9 mph - N/A   Overcast
1:38 PM 71.6 °F 68.0 °F 88% 29.83 in 10.0 mi NNE 6.9 mph - N/A   Overcast
1:41 PM 71.6 °F 68.0 °F 88% 29.83 in 10.0 mi NNE 8.1 mph - N/A   Overcast
1:53 PM 71.6 °F 68.0 °F 88% 29.83 in 10.0 mi North 4.6 mph - N/A   Overcast
1:56 PM 72.7 °F 68.2 °F 86% 29.82 in 10.0 mi North 4.6 mph - 0.00 in   Overcast
1:59 PM 73.4 °F 68.0 °F 83% 29.82 in 10.0 mi North 5.8 mph - N/A   Overcast
2:03 PM 73.4 °F 68.0 °F 83% 29.82 in 10.0 mi North 6.9 mph - N/A   Overcast
2:05 PM 73.4 °F 68.0 °F 83% 29.82 in 10.0 mi North 5.8 mph - N/A   Overcast
2:10 PM 71.6 °F 68.0 °F 88% 29.82 in 10.0 mi NNW 6.9 mph - N/A   Overcast
2:16 PM 73.4 °F 68.0 °F 83% 29.81 in 10.0 mi NW 6.9 mph - N/A   Light Drizzle
2:19 PM 73.4 °F 68.0 °F 83% 29.81 in 10.0 mi North 8.1 mph - N/A   Light Drizzle
2:20 PM 73.4 °F 68.0 °F 83% 29.81 in 10.0 mi North 9.2 mph - N/A   Light Drizzle
2:25 PM 73.4 °F 68.0 °F 83% 29.81 in 10.0 mi North 6.9 mph - N/A   Light Drizzle
2:26 PM 73.4 °F 68.0 °F 83% 29.81 in 10.0 mi North 5.8 mph - N/A Thunderstorm Unknown
2:27 PM 73.4 °F 68.0 °F 83% 29.81 in 10.0 mi North 6.9 mph - N/A Thunderstorm Thunderstorm
2:30 PM 73.4 °F 68.0 °F 83% 29.81 in 10.0 mi North 5.8 mph - N/A Thunderstorm Thunderstorm
2:40 PM 75.2 °F 68.0 °F 78% 29.81 in 10.0 mi NE 8.1 mph - N/A   Overcast
2:42 PM 75.2 °F 66.2 °F 73% 29.81 in 10.0 mi NE 9.2 mph - N/A Thunderstorm Thunderstorm
2:47 PM 73.4 °F 66.2 °F 78% 29.81 in 9.0 mi ESE 8.1 mph - N/A Thunderstorm Thunderstorm
2:56 PM 73.6 °F 66.6 °F 79% 29.81 in 4.0 mi South 11.5 mph - 0.00 in Thunderstorm Thunderstorm
3:03 PM 73.4 °F 66.2 °F 78% 29.81 in 7.0 mi South 10.4 mph - N/A Thunderstorm Thunderstorm
3:21 PM 71.6 °F 68.0 °F 88% 29.81 in 10.0 mi South 9.2 mph - N/A Thunderstorm Overcast
3:34 PM 69.8 °F 66.2 °F 88% 29.81 in 10.0 mi SW 5.8 mph - N/A Thunderstorm Overcast
3:56 PM 68.5 °F 65.8 °F 91% 29.82 in 10.0 mi WSW 4.6 mph - N/A   Scattered Clouds
4:56 PM 69.3 °F 66.2 °F 90% 29.80 in 10.0 mi NW 5.8 mph - N/A   Mostly Cloudy
5:56 PM 72.3 °F 65.8 °F 80% 29.79 in 10.0 mi NNW 4.6 mph - N/A   Partly Cloudy
6:56 PM 73.0 °F 63.5 °F 72% 29.80 in 10.0 mi North 8.1 mph - N/A   Partly Cloudy
7:56 PM 74.1 °F 65.3 °F 74% 29.79 in 10.0 mi North 9.2 mph - N/A   Clear
8:56 PM 70.9 °F 64.8 °F 81% 29.79 in 10.0 mi North 8.1 mph - N/A   Partly Cloudy
9:56 PM 69.4 °F 65.1 °F 86% 29.80 in 10.0 mi NNE 6.9 mph - N/A   Clear
10:56 PM 69.3 °F 64.2 °F 84% 29.82 in 10.0 mi NNE 6.9 mph - N/A   Clear
11:56 PM 68.0 °F 63.7 °F 86% 29.81 in 10.0 mi NNE 5.8 mph - N/A   Clear